Flag for American Samoa Weather past 2 weeks in Pago Pago, American Samoa

Now
81 °F

Overcast.


Feels Like: 87 °F
Forecast: 80 / 87 °F
Wind: 13 mph from East

Location: Pago Pago / Int. Airp.

Current Time: Apr 25, 2015 at 12:34:48 AM

Latest Report: Apr 24, 2015 at 11:53 PM


Visibility: 10 mi

Pressure: 29.89 "Hg

Humidity: 87%

Dew point: 76 °F

Location of Pago PagoLocation

Historic Weather in Pago Pago — Graph

°F

Pago Pago temperature yesterday

Maximum temperature yesterday: 87 °F (at 10:51 AM)
Minimum temperature yesterday: 77 °F (at 4:52 AM)
Average temperature yesterday: 80 °F

Past Weeks' High & Low Weather Summary

 TemperatureHumidityPressure
High90 °F (Apr 12, 12:53 PM)97% (Apr 23, 6:52 AM)29.98 "Hg (Apr 23, 6:52 AM)
Low76 °F (Apr 18, 11:51 AM)64% (Apr 10, 10:57 AM)29.72 "Hg (Apr 21, 2:52 PM)
Average82 °F83%29.85 "Hg
* Reported Apr 9 9:52 PM — Apr 24 9:50 PM, Pago Pago, Weather by CustomWeather, © 2015

Note: Actual official high and low records may vary slightly from our data, if they occured in-between our weather recording intervals... More about our weather records

Advertising

Pago Pago weather history for previous 24 hours

 ConditionsComfort  
Time TempWeatherWind HumidityBarometerVisibility
9:50 PM
Fri, Apr 24
79 °FSprinkles. Mostly cloudy.10 mph89%29.87 "Hg10 mi
8:52 PM78 °FSprinkles. Mostly cloudy.10 mph90%29.88 "Hg10 mi
7:51 PM78 °FSprinkles. Mostly cloudy.10 mph94%29.86 "Hg10 mi
6:51 PM77 °FSprinkles. Mostly cloudy.3 mph94%29.85 "Hg10 mi
5:54 PM78 °FSprinkles. Mostly cloudy.8 mph93%29.85 "Hg10 mi
4:50 PM79 °FSprinkles. Cloudy.8 mph89%29.83 "Hg11 mi
3:51 PM80 °FSprinkles. Cloudy.3 mph86%29.80 "Hg11 mi
2:50 PM80 °FCloudy.No wind84%29.82 "Hg11 mi
1:51 PM80 °FCloudy.7 mph87%29.82 "Hg11 mi
11:52 AM86 °FBroken clouds.10 mph79%29.83 "Hg12 mi
10:51 AM87 °FBroken clouds.10 mph78%29.85 "Hg12 mi
9:52 AM85 °FBroken clouds.3 mph81%29.85 "Hg12 mi
8:52 AM82 °FBroken clouds.3 mph88%29.84 "Hg12 mi
7:53 AM79 °FSprinkles. Cloudy.2 mph92%29.83 "Hg11 mi
6:50 AM77 °FBroken clouds.No wind94%29.80 "Hg12 mi
5:53 AM77 °FPassing clouds.3 mph92%29.78 "Hg10 mi
4:52 AM77 °FPartly cloudy.3 mph93%29.78 "Hg10 mi
3:52 AM77 °FPartly cloudy.No wind92%29.78 "Hg10 mi
2:54 AM79 °FPartly cloudy.2 mph89%29.79 "Hg10 mi
1:50 AM80 °FPartly cloudy.5 mph88%29.80 "Hg10 mi
12:50 AM79 °FPartly cloudy.3 mph91%29.82 "Hg10 mi
Weather by CustomWeather, © 2015

See weather overviewHow to use our weather pages